Starlink 32239

operational
NORAD ID: 61892 Int'l Des: 2024-204 Owner: SPXS Country: US Constellation: starlink
LEOCIRCULAR

关于 Starlink 32239

正在加载描述...

实时位置

正在加载3D地球...

即将过境

高度历史

Altitude vs Time

uPlot chart will show altitude changes over time

两行轨道根数

1 61892U 24204U 25258.19117178 .00003441 00000-0 12831-3 0 9995
2 61892 53.1589 222.5559 0000992 79.6882 280.4230 15.30186551 48229
Epoch: Sep 15, 2025 • Age: 10 hours

当前状态

高度 475.6 km
速度 7.63 km/s
星下点 6.40°N, 179.86°E
发射日期 Nov 9, 2024
运行时间 0.8 years
类型 internet

技术详情

分类 Payload
质量 730.00 kg
干质量 700.00 kg
总质量 730.00 kg
长度 0.30 m
直径 4.10 m
跨度 29.00 m
形状 Box + pan
制造商 SPXS
平台类型 Starlink V2M
阶段状态 In Orbit
所有者/国家 SPXS/US

大型星座

Loading constellations...